Regional Weather Roundup
Issued by NWS

Home | Current Version | Previous Version | Graphics & Text | Print | Product List | Glossary On
Versions: 1 2 3 4 5 6 7 8 9 10 11 12 13 14 15 16 17 18 19 20 21 22 23 24 25 26 27 28 29 30 31 32 33 34 35 36 37 38 39 40 41 42 43 44 45 46 47 48 49 50
950
ASUS43 KDMX 251903
RWRIA

WEATHER ROUNDUP FOR IOWA
NATIONAL WEATHER SERVICE DES MOINES IA
200 PM CDT THU AUG 25 2016

NOTE: "FAIR" INDICATES FEW OR NO CLOUDS BELOW 12,000 FEET WITH NO
SIGNIFICANT WEATHER AND/OR OBSTRUCTIONS TO VISIBILITY.

* - THESE STATIONS ARE NOT NWS STATIONS...THUS NOT UNDER NWS
QUALITY CONTROL.  THEY ALSO DO NOT REPORT WEATHER SUCH
AS PRECIPITATION OR FOG.

IAZ001>003-012>014-020>022-031>034-043>046-252000-
   NORTHWEST IOWA

CITY           SKY/WX    TMP DP  RH WIND       PRES   REMARKS
CARROLL *      CLOUDY    73  59  60 CALM      30.13F
CHEROKEE *     CLOUDY    72  57  60 NW8       30.14F
DENISON *      CLOUDY    73  63  68 VRB5      30.12F
LE MARS *      CLOUDY    72  57  60 NW5       30.16F
ORANGE CITY *  CLOUDY    70  57  64 W9        30.16S
SHELDON *      MOSUNNY   70  57  64 W8        30.14S
SIOUX CITY     MOSUNNY   71  58  63 NW9       30.15F
SPENCER        CLOUDY    72  55  55 W9        30.14S
STORM LAKE *     N/A     73  59  60 N7        30.14S
$$

IAZ055>058-069>071-079>083-090>094-252000-
   SOUTHWEST IOWA

CITY           SKY/WX    TMP DP  RH WIND       PRES   REMARKS
ATLANTIC *     MOSUNNY   72  61  68 N6        30.13S
AUDUBON *      CLOUDY    73  61  64 N3        30.15R
CLARINDA *       N/A     72  64  78 MISG      30.16R
COUNCIL BLFS * MOSUNNY   73  63  68 N7        30.14S
CRESTON *      CLOUDY    70  63  78 S5        30.15R
HARLAN  *      CLOUDY    73  61  64 N3        30.17S
LAMONI         CLOUDY    71  63  75 VRB3      30.11R
RED OAK *      PTSUNNY   72  64  78 VRB3      30.15R
SHENANDOAH *   CLOUDY    73 -36   1 CALM      30.13F
$$

IAZ047>049-059>061-072>074-084-252000-
   CENTRAL IOWA

CITY           SKY/WX    TMP DP  RH WIND       PRES   REMARKS
AMES           CLOUDY    74  62  66 CALM      30.11R
ANKENY *         N/A    N/A N/A N/A MISG        N/A
BOONE *        CLOUDY    73  61  64 N6        30.11S
CHARITON *       N/A     70  63  78 MISG      30.10R
DES MOINES     CLOUDY    74  62  66 E3        30.09S
GRINNELL*      CLOUDY    73  60  65 NE3       30.09F
KNOXVILLE *    MOSUNNY   72  63  73 E7        30.07F
MARSHALLTOWN   CLOUDY    74  63  68 CALM      30.09F
NEWTON *       CLOUDY    73  63  68 E6        30.07F
PERRY *          N/A     73  64  73 N3        30.12R
$$

IAZ004>006-015-016-023>025-035-036-252000-
   NORTH CENTRAL IOWA

CITY           SKY/WX    TMP DP  RH WIND       PRES   REMARKS
ALGONA *       CLOUDY    73  57  56 N7        30.12S
ESTHERVILLE    CLOUDY    70  58  65 NW8       30.13S
FORT DODGE *   MOSUNNY   75  63  64 W3        30.13S
MASON CITY     PTSUNNY   73  59  61 W9        30.12S
FOREST CITY *    N/A    N/A N/A N/A MISG        N/A
WEBSTER CITY * CLOUDY    75  63  64 CALM      30.10S
IOWA FALLS *     N/A     76  60  58 CALM      30.12S
$$

IAZ007>011-017>019-026>030-037>042-050>054-066-252000-
   NORTHEAST IOWA

CITY           SKY/WX    TMP DP  RH WIND       PRES   REMARKS
CEDAR RAPIDS   CLOUDY    74  65  73 W6        30.08F
CHARLES CITY * CLOUDY    73  64  73 SW5       30.10F
CLINTON *      PTSUNNY   76  65  68 SW6         N/A
DECORAH *      CLOUDY    73  61  64 SW6       30.09S
DUBUQUE        CLOUDY    77  60  55 W3        30.09F
MONTICELLO *   CLOUDY    77  64  65 W5        30.08F
OELWEIN *      CLOUDY    75  61  60 VRB3      30.11S
WATERLOO       CLOUDY    75  58  55 CALM      30.08F
$$

IAZ064-065-067-068-078-252000-
   EAST CENTRAL IOWA

CITY           SKY/WX    TMP DP  RH WIND       PRES   REMARKS
DAVENPORT      CLOUDY    74  65  73 NW5       30.08F
IOWA CITY      LGT RAIN  75  64  68 NW7       30.09F
MT. PLEASANT * CLOUDY    74  66  76 W3        30.10S
MUSCATINE *    LGT RAIN  73  66  78 CALM      30.08R
QUAD CITIES    MOSUNNY   78  66  66 NW8       30.05F HX  80
$$

IAZ062-063-075>077-085>089-095>099-252000-
   SOUTHEAST IOWA

CITY           SKY/WX    TMP DP  RH WIND       PRES   REMARKS
BURLINGTON     CLOUDY    76  69  79 N7        30.07F
FAIRFIELD *    CLOUDY    72  61  68 VRB5      30.07F
FORT MADISON * CLOUDY    75  70  83 NW6       30.10R
KEOKUK *       PTSUNNY   77  70  78 N6        30.08R
OSKALOOSA *    PTSUNNY   71  67  84 CALM      30.08F
OTTUMWA        CLOUDY    73  63  70 CALM      30.08F
WASHINGTON *   PTSUNNY   72  68  88 W6        30.10S
$$

ABBREVIATIONS USED IN REMARKS
   TC - TEMPERATURES IN CELSIUS
  WCI - WIND CHILL INDEX
   HX - HEAT INDEX
  VSB - VISIBILITY
$$





USA.gov is the U.S. government's official web portal to all federal, state and local government web resources and services.